Preview of NWS' New Version of Forecast
This preview is not operational and should not be used for support decisions.

Regional Weather Roundup (RWR)

Issued by National Weather Service (NWS)

                            
000
ASUS46 KPQR 160410
RWROR 

OREGON REGIONAL WEATHER ROUNDUP
NATIONAL WEATHER SERVICE PORTLAND OR
800 PM PST FRI FEB 15 2019

NOTE: "FAIR" INDICATES FEW OR NO CLOUDS BELOW 12,000 FEET WITH
NO SIGNIFICANT WEATHER AND/OR OBSTRUCTIONS TO VISIBILITY.

ORZ001>013-160500-
NORTHWEST OREGON

  
CITY           SKY/WX    TMP DP  RH WIND       PRES   REMARKS
ASTORIA        CLOUDY    42  40  92 E5        29.65R                  
TILLAMOOK      RAIN      41  39  93 CALM      29.67R                  
NEWPORT        RAIN      39  36  87 S10G17    29.70R                  
PORTLAND       CLOUDY    40  37  89 E12       29.70R                  
VANCOUVER WA   CLOUDY    40  37  89 E7        29.69S                  
SCAPPOOSE      LGT RAIN  43  39  86 S3        29.68S                  
HILLSBORO      LGT RAIN  42  37  82 S9        29.67R                  
AURORA         CLOUDY    42  37  82 S3        29.69R                  
MCMINNVILLE    CLOUDY    42  36  79 S16       29.67R                  
SALEM          CLOUDY    43  36  76 S21G26    29.68R                  
CORVALLIS      CLOUDY    40  37  89 S9        29.70R                  
EUGENE         CLOUDY    40  35  83 S10       29.71R                  
$$

ORZ021-028-160500-
SOUTHWEST OREGON

  
CITY           SKY/WX    TMP DP  RH WIND       PRES   REMARKS
NORTH BEND     LGT RAIN  40  38  93 S12       29.74R                  
BROOKINGS      CLOUDY    44  40  85 VRB3      29.80R                  
ROSEBURG       LGT RAIN  39  36  89 CALM      29.75R                  
SEXTON SUMMIT  HVY SNOW  28  27  96 S13G23    29.65R VSB 1/4 WCI  17  
GRANTS PASS    LGT SNOW  32  32 100 CALM      29.79                   
MEDFORD        RAIN      39  33  79 SW10      29.78R                  
$$

ORZ014>016-041-160500-
COLUMBIA GORGE

  
CITY           SKY/WX    TMP DP  RH WIND       PRES   REMARKS
TROUTDALE      LGT RAIN  39  35  86 E14       29.70S WCI  31          
HOOD RIVER     CLOUDY    32  32 100 CALM      29.73S FOG              
THE DALLES     CLOUDY    29  25  85 CALM      29.75F                  
$$

ORZ029>031-041-044-049-050-061>064-502-503-505>511-160500-
EASTERN OREGON

  
CITY           SKY/WX    TMP DP  RH WIND       PRES   REMARKS
MADRAS         NOT AVBL                                               
REDMOND        CLOUDY    36  21  54 SE7       29.64S                  
BEND           CLOUDY    36  19  51 SE8G18    29.63F                  
PRINEVILLE     CLOUDY    34  21  60 S5        29.65                   
KLAMATH FALLS  CLOUDY    31  22  69 S13       29.71S WCI  21          
LAKEVIEW       CLOUDY    27  22  81 S13       29.76R WCI  16          
HERMISTON      FOG       23  21  92 CALM      29.74S VSB 1/4          
PENDLETON      PTCLDY    31  27  85 NE8       29.70F                  
JOHN DAY       PTCLDY    30  28  94 E8        29.71                   
MEACHAM        CLEAR     26  21  81 CALM      29.67R                  
LA GRANDE      CLEAR     27  25  93 NW3       29.72S                  
BAKER CITY     PTCLDY    30  28  92 SE6       29.71S                  
BURNS          MOCLDY    26  22  84 NE6       29.71S                  
ROME             N/A     31  17  56 S12       29.73R WCI  22          
ONTARIO        PTCLDY    36  27  69 S5        29.77R                  
$$